Charter Quote
Worldwide +1-877-727-2538 Call
Select Language Lang
SAFETY RELIABILITY EXPERIENCE

Private Jet Charter Services - Changle (ZSFZ)

Paramount Business Jets offers private jet charter flights and luxury airliner charters to and from Changle.

AIRPORT INFORMATION
ICAOZSFZ
LOCATIONFuzhou, China
FACILITY TYPEAIRPORT

At Paramount Business Jets you can hire chartered private jets to and from Changle with as little as 4 hours of notice. All flights booked via Paramount Business Jets are operated by certified direct air carriers that meet and exceed the FAA part 135 and 121 protocol or a foreign equivalent safety authority. Furthermore, Paramount Business Jets subscribes to ARGUS for their third party safety checks of operators, aircraft, and crews prior each and every flight to and from Changle and worldwide.

  • Quote a trip using Changle or call us 24/7 - 365 days a year at +1-877-727-2538.
Questions? Call +1-877-727-2538

METAR Weather Data at Changle, ZSFZ

STATIONZSFZ
OBSERVEDMon Oct 21, 20:00 UTC
NOWMon Oct 21, 20:27 UTC
AGE27 min ago
WINDNW at 7 mph
VISIBILITYgreater than 7 miles
CLOUDSclear skies
TEMP66°F (19°C)
DEWPT54°F (12°C)
HUMIDITY64%
BAROMETER1014 hPa (29.94 in Hg)
METARZSFZ 212000Z 32003MPS 280V350 CAVOK 19/12 Q1014 NOSIG

Call us on +1-877-727-2538 (24 Hours) to Hire a Private Jet or Get a Quick Quote.

Find Airports Near any Location

Processing
...